This demonstration page uses our WeatherBlox Daily Observations layout. Learn more.

Left ArrowRight Arrow

39.08367, -84.50855

Hourly Observations for May 18, 2020

Temp ( °F °C ) Dew Point ( °F °C ) Humidity (%) Winds ( mph kmh ) Pressure ( in mb ) Visibility ( mi km ) Precip ( " mm )
12:53 am 00:53 Mostly Cloudy with Fog 65 18.3 65 18.3 100 100 Calm 29.8 1009 0.25 0.402335 0 0
1:15 am 01:15 Cloudy with Fog 65 18.3 65 18.3 100 100 Calm 29.8 1009 0.5 0.80467 0 0
1:47 am 01:47 Cloudy with Mist and Fog 64 18 64 18 100 100 Calm 29.79 1009 2 3.21868 0 0
1:48 am 01:48 Cloudy with Mist and Fog 65 18.3 65 18.3 100 100 Calm 29.78 1009 2 3.21868 0 0
2:02 am 02:02 Cloudy with Mist and Fog 65 18.3 65 18.3 100 100 Calm 29.78 1009 1 1.60934 0 0
2:09 am 02:09 Cloudy with Fog 65 18.3 65 18.3 100 100 Calm 29.78 1009 0.5 0.80467 0 0
2:18 am 02:18 Cloudy with Fog 65 18.3 65 18.3 100 100 Calm 29.78 1009 0.5 0.80467 0 0
2:53 am 02:53 Cloudy with Fog 64 17.8 64 17.8 100 100 Calm 29.77 1008 0.5 0.80467 0 0
3:06 am 03:06 Cloudy with Mist and Fog 64 17.8 64 17.8 100 100 WSW 3 6 29.77 1008 2 3.21868 0 0
3:14 am 03:14 Cloudy with Light Rain 64 17.8 64 17.8 100 100 Calm 29.76 1008 5 8.0467 0.001 0.001
3:53 am 03:53 Cloudy 65 18.3 65 18.3 100 100 W 7 11 29.75 1008 7 11.26538 0.001 0.001
4:53 am 04:53 Partly Cloudy 64 17.8 63 17.2 96 96 W 7 11 29.75 1008 10 16.0934 0 0
5:53 am 05:53 Mostly Clear with Mist and Fog 64 17.8 63 17.2 96 96 Calm 29.75 1008 5 8.0467 0 0
6:09 am 06:09 Mostly Cloudy with Mist and Fog 63 17.2 63 17.2 100 100 WSW 3 6 29.75 1008 1.75 2.816345 0 0
6:16 am 06:16 Cloudy with Mist and Fog 64 17.8 64 17.8 100 100 W 3 6 29.75 1008 3 4.82802 0 0
6:53 am 06:53 Mostly Cloudy 66 18.9 65 18.3 96 96 W 5 7 29.76 1008 10 16.0934 0 0
7:53 am 07:53 Partly Cloudy 68 20 65 18.3 90 90 SSW 5 7 29.76 1008 10 16.0934 0 0
8:53 am 08:53 Mostly Cloudy 72 22.2 65 18.3 79 79 S 10 17 29.75 1008 10 16.0934 0 0
9:53 am 09:53 Cloudy 71 21.7 65 18.3 81 81 S 8 13 29.77 1008 10 16.0934 0 0
10:53 am 10:53 Cloudy with Light Rain 70 21.1 66 18.9 87 87 S 8 13 29.78 1008 7 11.26538 0.02 0.508
11:53 am 11:53 Cloudy with Heavy Rain 68 20 66 18.9 93 93 SSE 8 13 29.78 1008 3 4.82802 0.05 1.27
12:00 pm 12:00 Cloudy with Heavy Rain 68 20 67 19.4 96 96 S 7 11 29.78 1008 1.25 2.011675 0.03 0.762
12:53 pm 12:53 Cloudy with Light Rain 70 21.1 68 20 93 93 SSW 9 15 29.77 1008 5 8.0467 0.08 2.032
1:53 pm 13:53 Cloudy with Light Rain 70 21.1 67 19.4 90 90 S 6 9 29.76 1008 10 16.0934 0.01 0.254
2:15 pm 14:15 Cloudy with Rain 68 20 65 18.3 90 90 NNW 7 11 29.76 1008 6 9.65604 0.03 0.762
2:39 pm 14:39 Cloudy with Nearby Thunderstorms 64 17.8 62 16.7 93 93 Calm 29.76 1008 4 6.43736 0.13 3.302
2:53 pm 14:53 Cloudy with Nearby Thunderstorms 64 17.8 62 16.7 93 93 Calm 29.76 1008 4 6.43736 0.17 4.318
3:05 pm 15:05 Cloudy with Rain 64 17.8 62 16.7 93 93 N 5 7 29.75 1008 5 8.0467 0.03 0.762
3:53 pm 15:53 Cloudy with Light Rain 64 17.8 62 16.7 93 93 VRB 3 6 29.75 1008 5 8.0467 0.11 2.794
4:05 pm 16:05 Cloudy with Nearby Thunderstorms 63 17.2 61 16.1 93 93 WNW 17 28 29.77 1008 2 3.21868 0.07 1.778
4:12 pm 16:12 Cloudy with Nearby Thunderstorms 62 16.7 59 15 90 90 WNW 16 26 29.77 1008 1 1.60934 0.2 5.08
4:23 pm 16:23 Cloudy with Heavy Rain 61 16.1 59 15 93 93 NW 9 15 29.77 1008 1.5 2.41401 0.28 7.112
4:30 pm 16:30 Cloudy with Rain 61 16.1 59 15 93 93 VRB 7 11 29.76 1008 3 4.82802 0.3 7.62
4:53 pm 16:53 Cloudy with Light Rain 61 16.1 59 15 93 93 NE 6 9 29.77 1008 8 12.87472 0.33 8.382
5:24 pm 17:24 Cloudy with Light Thunderstorms 61 16.1 59 15 93 93 Calm 29.78 1008 7 11.26538 0.03 0.762
5:53 pm 17:53 Cloudy with Rain 61 16.1 60 15.6 97 97 ENE 5 7 29.77 1008 4 6.43736 0.09 2.286
6:42 pm 18:42 Cloudy with Light Rain 61 16.1 60 15.6 97 97 WNW 7 11 29.77 1008 4 6.43736 0.07 1.778
6:50 pm 18:50 Cloudy with Rain 61 16 61 16 100 100 Calm 29.77 1008 5 8.0467 0.07 1.778
6:53 pm 18:53 Cloudy with Light Rain 61 16.1 60 15.6 97 97 Calm 29.76 1008 5 8.0467 0.08 2.032
7:02 pm 19:02 Cloudy with Heavy Rain 60 15.6 60 15.6 100 100 W 3 6 29.78 1008 0.75 1.207005 0.07 1.778
7:43 pm 19:43 Cloudy with Heavy Rain 60 15.6 60 15.6 100 100 WSW 5 7 29.78 1008 1.25 2.011675 0.49 12.446
7:50 pm 19:50 Cloudy with Rain 61 16 61 16 100 100 Calm 29.78 1008 2 3.21868 0.53 13.462
7:53 pm 19:53 Cloudy with Rain 60 15.6 60 15.6 100 100 SSW 3 6 29.78 1008 2 3.21868 0.54 13.716
8:53 pm 20:53 Cloudy with Rain 60 15.6 60 15.6 100 100 ENE 6 9 29.78 1009 2 3.21868 0.39 9.906
9:21 pm 21:21 Cloudy with Light Rain 60 15.6 60 15.6 100 100 ENE 6 9 29.77 1008 7 11.26538 0.07 1.778
9:53 pm 21:53 Mostly Clear 61 16.1 60 15.6 97 97 E 7 11 29.75 1008 10 16.0934 0.08 2.032
10:31 pm 22:31 Mostly Clear 61 16.1 60 15.6 97 97 W 6 9 29.78 1008 10 16.0934 0 0
10:53 pm 22:53 Mostly Cloudy 60 15.6 60 15.6 100 100 Calm 29.77 1008 10 16.0934 0 0
11:14 pm 23:14 Mostly Cloudy 60 15.6 60 15.6 100 100 Calm 29.78 1008 10 16.0934 0 0
11:53 pm 23:53 Mostly Cloudy 60 15.6 60 15.6 100 100 Calm 29.76 1008 10 16.0934 0 0

Powered by AerisWeather